Location: Detroit
(42.3310°N, 83.0460°W)
Time: 00:52:41
(UTC-04:00)

A-11 Canister half - Pass Details

Date: 16 February 2023
Orbit: 1526 x 1682 km, 47.3° (Epoch: 20 March)

Event Time Altitude Azimuth Distance (km) Brightness Sun altitude
Rises 09:21:18 0° 296° (WNW) 4,682 10.9 18.0°
Reaches altitude 10° 09:24:26 10° 291° (WNW) 3,704 10.5 18.5°
Maximum altitude 09:33:16 49° 221° (SW) 1,918 9.8 19.7°
Drops below altitude 10° 09:42:17 10° 150° (SSE) 3,778 12.7 21.0°
Sets 09:45:32 0° 145° (SE) 4,782 13.0 21.5°
